Time,TemperatureF,DewpointF,PressureIn,WindDirection,WindDirectionDegrees,WindSpeedMPH,WindSpeedGustMPH,Humidity,HourlyPrecipIn,Conditions,Clouds,dailyrainin,SoftwareType,DateUTC
2013-08-05 00:02:00,62.8,18.6,30.21,NNW,340,0.0,0.0,18,0.00,,,0.00,WeatherDisplay:10.37,2013-08-05 07:02:00,
2013-08-05 00:07:00,63.0,18.7,30.21,NNW,340,0.0,0.0,18,0.00,,,0.00,WeatherDisplay:10.37,2013-08-05 07:07:00,
2013-08-05 00:12:00,62.8,18.6,30.21,NNW,340,0.0,0.0,18,0.00,,,0.00,WeatherDisplay:10.37,2013-08-05 07:12:00,
2013-08-05 00:22:00,62.8,18.6,30.21,NW,320,0.0,0.0,18,0.00,,,0.00,WeatherDisplay:10.37,2013-08-05 07:22:00,
2013-08-05 00:27:00,63.1,18.9,30.21,WNW,282,0.0,0.0,18,0.00,,,0.00,WeatherDisplay:10.37,2013-08-05 07:27:00,
2013-08-05 00:32:00,63.0,18.7,30.21,West,272,0.0,0.0,18,0.00,,,0.00,WeatherDisplay:10.37,2013-08-05 07:32:00,
2013-08-05 00:37:00,63.0,18.7,30.21,West,272,0.0,0.0,18,0.00,,,0.00,WeatherDisplay:10.37,2013-08-05 07:37:00,
2013-08-05 00:42:00,62.8,18.6,30.19,West,272,0.0,0.0,18,0.00,,,0.00,WeatherDisplay:10.37,2013-08-05 07:42:00,
2013-08-05 00:47:00,62.8,18.6,30.18,West,272,0.0,0.0,18,0.00,,,0.00,WeatherDisplay:10.37,2013-08-05 07:47:00,
2013-08-05 00:52:00,62.8,18.6,30.18,West,272,0.0,0.0,18,0.00,,,0.00,WeatherDisplay:10.37,2013-08-05 07:52:00,
2013-08-05 00:57:00,62.6,18.4,30.18,West,272,0.0,0.0,18,0.00,,,0.00,WeatherDisplay:10.37,2013-08-05 07:57:00,
2013-08-05 01:02:00,62.6,18.4,30.18,West,272,0.0,0.0,18,0.00,,,0.00,WeatherDisplay:10.37,2013-08-05 08:02:00,
2013-08-05 01:07:00,62.5,18.4,30.18,West,272,0.0,0.0,18,0.00,,,0.00,WeatherDisplay:10.37,2013-08-05 08:07:00,
2013-08-05 01:12:00,62.6,18.4,30.18,NW,321,0.0,0.0,18,0.00,,,0.00,WeatherDisplay:10.37,2013-08-05 08:12:00,
2013-08-05 01:17:00,62.6,18.4,30.18,North,10,0.0,0.0,18,0.00,,,0.00,WeatherDisplay:10.37,2013-08-05 08:17:00,
2013-08-05 01:22:00,62.5,18.4,30.18,North,356,0.0,0.0,18,0.00,,,0.00,WeatherDisplay:10.37,2013-08-05 08:22:00,
2013-08-05 01:27:00,62.8,18.6,30.18,NW,321,0.0,0.0,18,0.00,,,0.00,WeatherDisplay:10.37,2013-08-05 08:27:00,
2013-08-05 01:32:00,62.6,18.4,30.18,NNW,341,0.0,0.0,18,0.00,,,0.00,WeatherDisplay:10.37,2013-08-05 08:32:00,
2013-08-05 01:37:00,62.6,15.7,30.18,NNE,20,0.0,0.0,16,0.00,,,0.00,WeatherDisplay:10.37,2013-08-05 08:37:00,
2013-08-05 01:42:00,62.7,15.8,30.18,NNE,27,0.0,0.0,16,0.00,,,0.00,WeatherDisplay:10.37,2013-08-05 08:42:00,
2013-08-05 01:47:00,62.6,15.7,30.18,NNE,27,0.0,0.0,16,0.00,,,0.00,WeatherDisplay:10.37,2013-08-05 08:47:00,
2013-08-05 01:52:00,62.6,15.7,30.18,NNE,32,0.0,0.0,16,0.00,,,0.00,WeatherDisplay:10.37,2013-08-05 08:52:00,
2013-08-05 02:02:00,62.3,15.5,30.18,NNE,16,0.0,0.0,16,0.00,,,0.00,WeatherDisplay:10.37,2013-08-05 09:02:00,
2013-08-05 02:12:00,61.9,15.1,30.18,North,5,0.0,0.0,16,0.00,,,0.00,WeatherDisplay:10.37,2013-08-05 09:12:00,
2013-08-05 02:22:00,62.2,15.4,30.18,NW,304,0.0,3.0,16,0.00,,,0.00,WeatherDisplay:10.37,2013-08-05 09:22:00,
2013-08-05 02:27:00,61.9,15.1,30.18,WNW,302,0.0,3.0,16,0.00,,,0.00,WeatherDisplay:10.37,2013-08-05 09:27:00,
2013-08-05 02:32:00,61.7,15.0,30.18,North,350,0.0,0.0,16,0.00,,,0.00,WeatherDisplay:10.37,2013-08-05 09:32:00,
2013-08-05 02:37:00,61.3,14.7,30.18,North,352,0.0,0.0,16,0.00,,,0.00,WeatherDisplay:10.37,2013-08-05 09:37:00,
2013-08-05 02:42:00,61.3,14.7,30.18,North,349,0.0,0.0,16,0.00,,,0.00,WeatherDisplay:10.37,2013-08-05 09:42:00,
2013-08-05 02:47:00,61.7,15.0,30.18,North,352,0.0,0.0,16,0.00,,,0.00,WeatherDisplay:10.37,2013-08-05 09:47:00,
2013-08-05 02:57:00,62.0,15.2,30.18,North,353,0.0,3.0,16,0.00,,,0.00,WeatherDisplay:10.37,2013-08-05 09:57:00,
2013-08-05 03:02:00,62.1,15.3,30.18,NNE,30,0.0,0.0,16,0.00,,,0.00,WeatherDisplay:10.37,2013-08-05 10:02:00,
2013-08-05 03:07:00,61.5,14.8,30.18,NNE,30,0.0,0.0,16,0.00,,,0.00,WeatherDisplay:10.37,2013-08-05 10:07:00,
2013-08-05 03:22:00,61.3,14.7,30.18,NNE,12,0.0,0.0,16,0.00,,,0.00,WeatherDisplay:10.37,2013-08-05 10:22:00,
2013-08-05 03:27:00,61.3,14.7,30.18,North,353,0.0,6.0,16,0.00,,,0.00,WeatherDisplay:10.37,2013-08-05 10:27:00,
2013-08-05 03:32:00,61.2,14.5,30.18,West,275,0.0,6.0,16,0.00,,,0.00,WeatherDisplay:10.37,2013-08-05 10:32:00,
2013-08-05 03:37:00,61.2,14.5,30.18,WSW,257,0.0,0.0,16,0.00,,,0.00,WeatherDisplay:10.37,2013-08-05 10:37:00,
2013-08-05 03:42:00,61.2,14.5,30.18,West,272,0.0,0.0,16,0.00,,,0.00,WeatherDisplay:10.37,2013-08-05 10:42:00,
2013-08-05 03:52:00,61.0,14.4,30.18,WNW,286,0.0,0.0,16,0.00,,,0.00,WeatherDisplay:10.37,2013-08-05 10:52:00,
2013-08-05 04:02:00,61.0,14.4,30.18,NNW,329,0.0,0.0,16,0.00,,,0.00,WeatherDisplay:10.37,2013-08-05 11:02:00,
2013-08-05 04:12:00,61.2,14.5,30.18,NE,35,0.0,0.0,16,0.00,,,0.00,WeatherDisplay:10.37,2013-08-05 11:12:00,
2013-08-05 04:17:00,60.8,14.3,30.18,NNE,29,0.0,0.0,16,0.00,,,0.00,WeatherDisplay:10.37,2013-08-05 11:17:00,
2013-08-05 04:27:00,61.0,14.4,30.18,NNW,340,0.0,0.0,16,0.00,,,0.00,WeatherDisplay:10.37,2013-08-05 11:27:00,
2013-08-05 04:37:00,60.6,15.5,30.18,NNW,337,0.0,0.0,17,0.00,,,0.00,WeatherDisplay:10.37,2013-08-05 11:37:00,
2013-08-05 04:42:00,60.3,15.2,30.18,NNW,333,0.0,0.0,17,0.00,,,0.00,WeatherDisplay:10.37,2013-08-05 11:42:00,
2013-08-05 04:52:00,60.6,15.5,30.18,NNW,336,0.0,0.0,17,0.00,,,0.00,WeatherDisplay:10.37,2013-08-05 11:52:00,
2013-08-05 04:57:00,60.6,15.5,30.18,North,353,0.0,0.0,17,0.00,,,0.00,WeatherDisplay:10.37,2013-08-05 11:57:00,
2013-08-05 05:07:00,60.6,15.5,30.18,North,5,0.0,0.0,17,0.00,,,0.00,WeatherDisplay:10.37,2013-08-05 12:07:00,
2013-08-05 05:12:00,60.3,15.3,30.18,North,0,0.0,0.0,17,0.00,,,0.00,WeatherDisplay:10.37,2013-08-05 12:12:00,
2013-08-05 05:17:00,60.6,15.5,30.18,North,4,0.0,0.0,17,0.00,,,0.00,WeatherDisplay:10.37,2013-08-05 12:17:00,
2013-08-05 05:27:00,60.8,14.3,30.18,NNE,33,0.0,3.0,16,0.00,,,0.00,WeatherDisplay:10.37,2013-08-05 12:27:00,
2013-08-05 05:32:00,61.0,14.4,30.18,NNE,32,0.0,0.0,16,0.00,,,0.00,WeatherDisplay:10.37,2013-08-05 12:32:00,
2013-08-05 05:37:00,60.8,14.3,30.18,North,357,0.0,0.0,16,0.00,,,0.00,WeatherDisplay:10.37,2013-08-05 12:37:00,
2013-08-05 05:47:00,59.2,14.3,30.18,NW,310,0.0,0.0,17,0.00,,,0.00,WeatherDisplay:10.37,2013-08-05 12:47:00,
2013-08-05 05:52:00,58.3,13.6,30.18,West,276,0.0,0.0,17,0.00,,,0.00,WeatherDisplay:10.37,2013-08-05 12:52:00,
2013-08-05 05:57:00,58.6,13.8,30.18,WNW,292,0.0,0.0,17,0.00,,,0.00,WeatherDisplay:10.37,2013-08-05 12:57:00,
2013-08-05 06:02:00,59.3,14.4,30.18,WNW,298,0.0,0.0,17,0.00,,,0.00,WeatherDisplay:10.37,2013-08-05 13:02:00,
2013-08-05 06:07:00,59.7,14.8,30.18,NW,307,0.0,0.0,17,0.00,,,0.00,WeatherDisplay:10.37,2013-08-05 13:07:00,
2013-08-05 06:17:00,60.4,15.3,30.18,North,351,0.0,0.0,17,0.00,,,0.00,WeatherDisplay:10.37,2013-08-05 13:17:00,
2013-08-05 06:22:00,60.1,15.1,30.18,North,1,0.0,0.0,17,0.00,,,0.00,WeatherDisplay:10.37,2013-08-05 13:22:00,
2013-08-05 06:27:00,60.1,15.1,30.18,North,4,0.0,0.0,17,0.00,,,0.00,WeatherDisplay:10.37,2013-08-05 13:27:00,
2013-08-05 06:32:00,60.3,15.2,30.18,NNE,15,0.0,0.0,17,0.00,,,0.00,WeatherDisplay:10.37,2013-08-05 13:32:00,
2013-08-05 06:37:00,60.4,15.4,30.18,NNE,17,0.0,0.0,17,0.00,,,0.00,WeatherDisplay:10.37,2013-08-05 13:37:00,
2013-08-05 06:42:00,60.6,15.5,30.18,NNE,20,0.0,0.0,17,0.00,,,0.00,WeatherDisplay:10.37,2013-08-05 13:42:00,
2013-08-05 06:47:00,61.2,14.6,30.18,NNE,23,0.0,0.0,16,0.00,,,0.00,WeatherDisplay:10.37,2013-08-05 13:47:00,
2013-08-05 06:52:00,61.4,14.7,30.18,NNE,24,0.0,0.0,16,0.00,,,0.00,WeatherDisplay:10.37,2013-08-05 13:52:00,
2013-08-05 06:58:00,61.9,15.2,30.18,NNE,26,0.0,0.0,16,0.00,,,0.00,WeatherDisplay:10.37,2013-08-05 13:58:00,
2013-08-05 07:12:00,63.0,16.1,30.18,NNE,19,0.0,0.0,16,0.00,,,0.00,WeatherDisplay:10.37,2013-08-05 14:12:00,
2013-08-05 07:17:00,63.2,16.2,30.18,NNE,25,1.0,4.0,16,0.00,,,0.00,WeatherDisplay:10.37,2013-08-05 14:17:00,
2013-08-05 07:22:00,62.6,18.4,30.18,WSW,242,0.0,3.0,18,0.00,,,0.00,WeatherDisplay:10.37,2013-08-05 14:22:00,
2013-08-05 07:27:00,62.4,19.6,30.18,SW,230,0.0,0.0,19,0.00,,,0.00,WeatherDisplay:10.37,2013-08-05 14:27:00,
2013-08-05 07:32:00,62.6,18.4,30.18,SW,228,0.0,0.0,18,0.00,,,0.00,WeatherDisplay:10.37,2013-08-05 14:32:00,
2013-08-05 07:37:00,63.0,18.7,30.18,SW,228,0.0,0.0,18,0.00,,,0.00,WeatherDisplay:10.37,2013-08-05 14:37:00,
2013-08-05 07:42:00,63.6,19.3,30.18,NNE,26,0.0,0.0,18,0.00,,,0.00,WeatherDisplay:10.37,2013-08-05 14:42:00,
2013-08-05 07:47:00,64.2,19.8,30.18,NE,41,0.0,0.0,18,0.00,,,0.00,WeatherDisplay:10.37,2013-08-05 14:47:00,
2013-08-05 07:52:00,65.0,20.4,30.18,NE,51,0.0,0.0,18,0.00,,,0.00,WeatherDisplay:10.37,2013-08-05 14:52:00,
2013-08-05 08:02:00,66.3,20.1,30.21,North,1,0.0,4.0,17,0.00,,,0.00,WeatherDisplay:10.37,2013-08-05 15:02:00,
2013-08-05 08:07:00,66.9,20.6,30.21,WSW,246,0.0,3.0,17,0.00,,,0.00,WeatherDisplay:10.37,2013-08-05 15:07:00,
2013-08-05 08:17:00,68.1,21.6,30.21,SW,222,0.0,4.0,17,0.00,,,0.00,WeatherDisplay:10.37,2013-08-05 15:17:00,
2013-08-05 08:22:00,68.4,21.8,30.21,SW,217,0.0,4.0,17,0.00,,,0.00,WeatherDisplay:10.37,2013-08-05 15:22:00,
2013-08-05 08:27:00,68.7,22.1,30.21,SW,222,0.0,3.0,17,0.00,,,0.00,WeatherDisplay:10.37,2013-08-05 15:27:00,
2013-08-05 08:32:00,69.0,22.3,30.21,WSW,248,0.0,6.0,17,0.00,,,0.00,WeatherDisplay:10.37,2013-08-05 15:32:00,
2013-08-05 08:37:00,69.4,22.7,30.21,WSW,249,2.0,4.0,17,0.00,,,0.00,WeatherDisplay:10.37,2013-08-05 15:37:00,
2013-08-05 08:42:00,69.9,23.0,30.21,WSW,241,2.0,4.0,17,0.00,,,0.00,WeatherDisplay:10.37,2013-08-05 15:42:00,
2013-08-05 08:47:00,70.3,23.4,30.21,WSW,248,3.0,6.0,17,0.00,,,0.00,WeatherDisplay:10.37,2013-08-05 15:47:00,
2013-08-05 08:52:00,70.7,23.7,30.21,WSW,240,3.0,6.0,17,0.00,,,0.00,WeatherDisplay:10.37,2013-08-05 15:52:00,
2013-08-05 08:57:00,71.2,24.1,30.21,WSW,238,3.0,6.0,17,0.00,,,0.00,WeatherDisplay:10.37,2013-08-05 15:57:00,
2013-08-05 09:02:00,71.8,23.1,30.21,WSW,256,1.0,6.0,16,0.00,,,0.00,WeatherDisplay:10.37,2013-08-05 16:02:00,
2013-08-05 09:07:00,72.5,23.7,30.21,West,261,1.0,5.0,16,0.00,,,0.00,WeatherDisplay:10.37,2013-08-05 16:07:00,
2013-08-05 09:12:00,72.9,24.0,30.21,West,261,5.0,6.0,16,0.00,,,0.00,WeatherDisplay:10.37,2013-08-05 16:12:00,
2013-08-05 09:17:00,73.2,24.3,30.21,West,268,3.0,6.0,16,0.00,,,0.00,WeatherDisplay:10.37,2013-08-05 16:17:00,
2013-08-05 09:32:00,74.0,24.9,30.21,West,259,6.0,9.0,16,0.00,,,0.00,WeatherDisplay:10.37,2013-08-05 16:32:00,
2013-08-05 09:42:00,74.6,25.4,30.21,SW,228,1.0,6.0,16,0.00,,,0.00,WeatherDisplay:10.37,2013-08-05 16:42:00,
2013-08-05 09:47:00,75.0,25.7,30.21,SW,219,3.0,8.0,16,0.00,,,0.00,WeatherDisplay:10.37,2013-08-05 16:47:00,
2013-08-05 09:52:00,75.4,24.5,30.21,SW,233,5.0,7.0,15,0.00,,,0.00,WeatherDisplay:10.37,2013-08-05 16:52:00,
2013-08-05 09:57:00,75.7,24.8,30.21,SW,234,3.0,8.0,15,0.00,,,0.00,WeatherDisplay:10.37,2013-08-05 16:57:00,
2013-08-05 10:02:00,75.9,24.9,30.21,WSW,237,5.0,9.0,15,0.00,,,0.00,WeatherDisplay:10.37,2013-08-05 17:02:00,
2013-08-05 10:07:00,76.1,25.1,30.21,WSW,252,3.0,9.0,15,0.00,,,0.00,WeatherDisplay:10.37,2013-08-05 17:07:00,
2013-08-05 10:12:00,76.5,25.3,30.21,WSW,242,2.0,6.0,15,0.00,,,0.00,WeatherDisplay:10.37,2013-08-05 17:12:00,
2013-08-05 10:17:00,76.8,25.6,30.21,WSW,242,5.0,6.0,15,0.00,,,0.00,WeatherDisplay:10.37,2013-08-05 17:17:00,
2013-08-05 10:22:00,77.2,25.9,30.21,WSW,250,6.0,8.0,15,0.00,,,0.00,WeatherDisplay:10.37,2013-08-05 17:22:00,
2013-08-05 10:37:00,77.9,26.5,30.21,WSW,248,3.0,6.0,15,0.00,,,0.00,WeatherDisplay:10.37,2013-08-05 17:37:00,
2013-08-05 10:47:00,78.3,26.8,30.21,WSW,250,5.0,8.0,15,0.00,,,0.00,WeatherDisplay:10.37,2013-08-05 17:47:00,
2013-08-05 10:52:00,78.4,26.9,30.21,SW,230,3.0,6.0,15,0.00,,,0.00,WeatherDisplay:10.37,2013-08-05 17:52:00,
2013-08-05 10:57:00,78.3,26.8,30.21,SW,219,5.0,8.0,15,0.00,,,0.00,WeatherDisplay:10.37,2013-08-05 17:57:00,
2013-08-05 11:02:00,78.1,26.6,30.21,SW,214,3.0,8.0,15,0.00,,,0.00,WeatherDisplay:10.37,2013-08-05 18:02:00,
2013-08-05 11:07:00,77.9,26.5,30.21,SW,231,5.0,12.0,15,0.00,,,0.00,WeatherDisplay:10.37,2013-08-05 18:07:00,
2013-08-05 11:12:00,77.9,26.5,30.21,WSW,247,5.0,7.0,15,0.00,,,0.00,WeatherDisplay:10.37,2013-08-05 18:12:00,
2013-08-05 11:22:00,77.6,26.2,30.21,WSW,252,5.0,8.0,15,0.00,,,0.00,WeatherDisplay:10.37,2013-08-05 18:22:00,
2013-08-05 11:27:00,77.9,26.5,30.21,WSW,256,5.0,8.0,15,0.00,,,0.00,WeatherDisplay:10.37,2013-08-05 18:27:00,
2013-08-05 11:32:00,78.2,26.8,30.21,WSW,255,3.0,9.0,15,0.00,,,0.00,WeatherDisplay:10.37,2013-08-05 18:32:00,
2013-08-05 11:37:00,78.4,26.9,30.21,WSW,249,2.0,8.0,15,0.00,,,0.00,WeatherDisplay:10.37,2013-08-05 18:37:00,
2013-08-05 11:42:00,78.4,26.9,30.21,WSW,242,5.0,9.0,15,0.00,,,0.00,WeatherDisplay:10.37,2013-08-05 18:42:00,
2013-08-05 11:47:00,78.7,27.1,30.21,SW,226,5.0,8.0,15,0.00,,,0.00,WeatherDisplay:10.37,2013-08-05 18:47:00,
2013-08-05 11:52:00,78.8,27.2,30.21,SSW,211,3.0,7.0,15,0.00,,,0.00,WeatherDisplay:10.37,2013-08-05 18:52:00,
2013-08-05 11:57:00,78.8,27.2,30.21,SSW,209,3.0,9.0,15,0.00,,,0.00,WeatherDisplay:10.37,2013-08-05 18:57:00,
2013-08-05 12:07:00,78.7,27.2,30.21,SW,231,5.0,10.0,15,0.00,,,0.00,WeatherDisplay:10.37,2013-08-05 19:07:00,
2013-08-05 12:12:00,79.0,27.4,30.21,SW,235,3.0,9.0,15,0.00,,,0.00,WeatherDisplay:10.37,2013-08-05 19:12:00,
2013-08-05 12:17:00,79.0,27.4,30.21,SW,231,5.0,9.0,15,0.00,,,0.00,WeatherDisplay:10.37,2013-08-05 19:17:00,
2013-08-05 12:22:00,79.0,27.4,30.21,SW,227,3.0,12.0,15,0.00,,,0.00,WeatherDisplay:10.37,2013-08-05 19:22:00,
2013-08-05 12:27:00,79.2,27.5,30.21,SW,216,3.0,10.0,15,0.00,,,0.00,WeatherDisplay:10.37,2013-08-05 19:27:00,
2013-08-05 12:32:00,79.2,27.5,30.21,SSW,212,5.0,8.0,15,0.00,,,0.00,WeatherDisplay:10.37,2013-08-05 19:32:00,
2013-08-05 12:37:00,79.2,27.5,30.21,SW,221,7.0,11.0,15,0.00,,,0.00,WeatherDisplay:10.37,2013-08-05 19:37:00,
2013-08-05 12:42:00,79.2,27.5,30.21,WSW,244,5.0,9.0,15,0.00,,,0.00,WeatherDisplay:10.37,2013-08-05 19:42:00,
2013-08-05 12:52:00,79.0,27.4,30.21,SW,235,5.0,12.0,15,0.00,,,0.00,WeatherDisplay:10.37,2013-08-05 19:52:00,
2013-08-05 13:02:00,79.0,27.4,30.21,SW,225,5.0,10.0,15,0.00,,,0.00,WeatherDisplay:10.37,2013-08-05 20:02:00,
2013-08-05 13:07:00,79.2,27.5,30.21,SW,224,3.0,9.0,15,0.00,,,0.00,WeatherDisplay:10.37,2013-08-05 20:07:00,
2013-08-05 13:12:00,79.3,27.6,30.21,SW,225,7.0,10.0,15,0.00,,,0.00,WeatherDisplay:10.37,2013-08-05 20:12:00,
2013-08-05 13:17:00,79.2,27.5,30.21,WSW,244,5.0,12.0,15,0.00,,,0.00,WeatherDisplay:10.37,2013-08-05 20:17:00,
2013-08-05 13:22:00,79.2,27.5,30.21,WSW,256,7.0,11.0,15,0.00,,,0.00,WeatherDisplay:10.37,2013-08-05 20:22:00,
2013-08-05 13:27:00,79.0,27.4,30.21,WSW,254,7.0,13.0,15,0.00,,,0.00,WeatherDisplay:10.37,2013-08-05 20:27:00,
2013-08-05 13:37:00,79.5,27.8,30.21,West,259,5.0,10.0,15,0.00,,,0.00,WeatherDisplay:10.37,2013-08-05 20:37:00,
2013-08-05 13:47:00,80.1,28.2,30.21,WSW,243,5.0,11.0,15,0.00,,,0.00,WeatherDisplay:10.37,2013-08-05 20:47:00,
2013-08-05 13:52:00,80.1,28.2,30.21,WSW,243,7.0,11.0,15,0.00,,,0.00,WeatherDisplay:10.37,2013-08-05 20:52:00,
2013-08-05 13:57:00,79.8,28.0,30.21,WSW,251,7.0,15.0,15,0.00,,,0.00,WeatherDisplay:10.37,2013-08-05 20:57:00,
2013-08-05 14:02:00,79.5,27.8,30.21,WSW,250,8.0,11.0,15,0.00,,,0.00,WeatherDisplay:10.37,2013-08-05 21:02:00,
2013-08-05 14:07:00,79.5,27.8,30.21,SW,230,5.0,11.0,15,0.00,,,0.00,WeatherDisplay:10.37,2013-08-05 21:07:00,
2013-08-05 14:12:00,79.7,27.9,30.21,SW,220,6.0,8.0,15,0.00,,,0.00,WeatherDisplay:10.37,2013-08-05 21:12:00,
2013-08-05 14:17:00,79.9,28.1,30.21,WSW,247,7.0,13.0,15,0.00,,,0.00,WeatherDisplay:10.37,2013-08-05 21:17:00,
2013-08-05 14:22:00,79.6,27.8,30.21,WSW,247,6.0,13.0,15,0.00,,,0.00,WeatherDisplay:10.37,2013-08-05 21:22:00,
2013-08-05 14:32:00,79.9,28.1,30.21,SW,223,7.0,11.0,15,0.00,,,0.00,WeatherDisplay:10.37,2013-08-05 21:32:00,
2013-08-05 14:37:00,79.7,27.9,30.21,SW,219,5.0,9.0,15,0.00,,,0.00,WeatherDisplay:10.37,2013-08-05 21:37:00,
2013-08-05 14:42:00,79.7,27.9,30.21,SW,216,5.0,10.0,15,0.00,,,0.00,WeatherDisplay:10.37,2013-08-05 21:42:00,
2013-08-05 14:47:00,79.5,27.8,30.21,SW,229,7.0,13.0,15,0.00,,,0.00,WeatherDisplay:10.37,2013-08-05 21:47:00,
2013-08-05 14:52:00,79.5,27.8,30.21,SW,231,5.0,13.0,15,0.00,,,0.00,WeatherDisplay:10.37,2013-08-05 21:52:00,
2013-08-05 14:57:00,79.6,27.9,30.21,SW,220,5.0,8.0,15,0.00,,,0.00,WeatherDisplay:10.37,2013-08-05 21:57:00,
2013-08-05 15:02:00,79.9,28.1,30.21,SW,216,3.0,6.0,15,0.00,,,0.00,WeatherDisplay:10.37,2013-08-05 22:02:00,
2013-08-05 15:07:00,80.1,28.2,30.21,SSW,212,3.0,8.0,15,0.00,,,0.00,WeatherDisplay:10.37,2013-08-05 22:07:00,
2013-08-05 15:12:00,79.8,28.0,30.21,SW,222,5.0,10.0,15,0.00,,,0.00,WeatherDisplay:10.37,2013-08-05 22:12:00,
2013-08-05 15:27:00,79.1,27.5,30.18,SW,225,5.0,8.0,15,0.00,,,0.00,WeatherDisplay:10.37,2013-08-05 22:27:00,
2013-08-05 15:32:00,78.8,27.2,30.18,SW,220,6.0,10.0,15,0.00,,,0.00,WeatherDisplay:10.37,2013-08-05 22:32:00,
2013-08-05 15:42:00,78.6,27.1,30.18,SW,225,3.0,8.0,15,0.00,,,0.00,WeatherDisplay:10.37,2013-08-05 22:42:00,
2013-08-05 15:47:00,78.4,26.9,30.18,SW,214,3.0,8.0,15,0.00,,,0.00,WeatherDisplay:10.37,2013-08-05 22:47:00,
2013-08-05 16:02:00,77.4,26.1,30.18,SW,219,3.0,10.0,15,0.00,,,0.00,WeatherDisplay:10.37,2013-08-05 23:02:00,
2013-08-05 16:07:00,77.4,26.1,30.18,SW,217,6.0,8.0,15,0.00,,,0.00,WeatherDisplay:10.37,2013-08-05 23:07:00,
2013-08-05 16:17:00,76.8,25.6,30.18,SW,217,5.0,8.0,15,0.00,,,0.00,WeatherDisplay:10.37,2013-08-05 23:17:00,
2013-08-05 16:22:00,76.6,25.5,30.18,SSW,213,5.0,7.0,15,0.00,,,0.00,WeatherDisplay:10.37,2013-08-05 23:22:00,
2013-08-05 16:27:00,76.3,25.2,30.18,SSW,211,6.0,8.0,15,0.00,,,0.00,WeatherDisplay:10.37,2013-08-05 23:27:00,
2013-08-05 16:42:00,75.6,24.7,30.18,SSW,207,5.0,10.0,15,0.00,,,0.00,WeatherDisplay:10.37,2013-08-05 23:42:00,
2013-08-05 16:47:00,75.4,24.5,30.18,SSW,198,3.0,8.0,15,0.00,,,0.00,WeatherDisplay:10.37,2013-08-05 23:47:00,
2013-08-05 16:52:00,75.2,24.3,30.18,SW,229,5.0,9.0,15,0.00,,,0.00,WeatherDisplay:10.37,2013-08-05 23:52:00,
2013-08-05 16:57:00,75.0,25.7,30.18,SW,216,2.0,7.0,16,0.00,,,0.00,WeatherDisplay:10.37,2013-08-05 23:57:00,
2013-08-05 17:02:00,74.7,25.5,30.18,SW,215,5.0,6.0,16,0.00,,,0.00,WeatherDisplay:10.37,2013-08-06 00:02:00,
2013-08-05 17:07:00,74.5,25.3,30.18,SW,231,3.0,8.0,16,0.00,,,0.00,WeatherDisplay:10.37,2013-08-06 00:07:00,
2013-08-05 17:12:00,74.3,25.2,30.18,SW,217,3.0,8.0,16,0.00,,,0.00,WeatherDisplay:10.37,2013-08-06 00:12:00,
2013-08-05 17:17:00,74.1,25.0,30.18,SW,226,3.0,8.0,16,0.00,,,0.00,WeatherDisplay:10.37,2013-08-06 00:17:00,
2013-08-05 17:22:00,73.9,24.9,30.18,WSW,239,3.0,6.0,16,0.00,,,0.00,WeatherDisplay:10.37,2013-08-06 00:22:00,
2013-08-05 17:27:00,73.8,24.7,30.18,SW,224,2.0,6.0,16,0.00,,,0.00,WeatherDisplay:10.37,2013-08-06 00:27:00,
2013-08-05 17:32:00,73.6,24.6,30.18,SW,225,5.0,8.0,16,0.00,,,0.00,WeatherDisplay:10.37,2013-08-06 00:32:00,
2013-08-05 17:37:00,73.4,24.4,30.18,SW,229,6.0,10.0,16,0.00,,,0.00,WeatherDisplay:10.37,2013-08-06 00:37:00,
2013-08-05 17:47:00,72.9,24.0,30.18,SW,230,3.0,6.0,16,0.00,,,0.00,WeatherDisplay:10.37,2013-08-06 00:47:00,
2013-08-05 17:52:00,72.7,23.9,30.18,SW,227,5.0,8.0,16,0.00,,,0.00,WeatherDisplay:10.37,2013-08-06 00:52:00,
2013-08-05 17:57:00,72.3,23.6,30.18,SW,222,2.0,4.0,16,0.00,,,0.00,WeatherDisplay:10.37,2013-08-06 00:57:00,
2013-08-05 18:02:00,72.2,23.5,30.18,WSW,246,5.0,11.0,16,0.00,,,0.00,WeatherDisplay:10.37,2013-08-06 01:02:00,
2013-08-05 18:07:00,72.0,23.3,30.18,WSW,244,5.0,9.0,16,0.00,,,0.00,WeatherDisplay:10.37,2013-08-06 01:07:00,
2013-08-05 18:22:00,71.1,24.0,30.18,WSW,243,2.0,6.0,17,0.00,,,0.00,WeatherDisplay:10.37,2013-08-06 01:22:00,
2013-08-05 18:27:00,70.7,23.7,30.18,WSW,242,5.0,6.0,17,0.00,,,0.00,WeatherDisplay:10.37,2013-08-06 01:27:00,
2013-08-05 18:32:00,70.3,23.4,30.18,WSW,242,0.0,6.0,17,0.00,,,0.00,WeatherDisplay:10.37,2013-08-06 01:32:00,
2013-08-05 18:37:00,70.1,23.2,30.18,WSW,237,1.0,6.0,17,0.00,,,0.00,WeatherDisplay:10.37,2013-08-06 01:37:00,
2013-08-05 18:42:00,69.5,22.8,30.18,SW,223,0.0,4.0,17,0.00,,,0.00,WeatherDisplay:10.37,2013-08-06 01:42:00,
2013-08-05 18:47:00,69.2,22.5,30.18,SW,221,2.0,4.0,17,0.00,,,0.00,WeatherDisplay:10.37,2013-08-06 01:47:00,
2013-08-05 18:57:00,68.7,22.1,30.18,SW,227,1.0,6.0,17,0.00,,,0.00,WeatherDisplay:10.37,2013-08-06 01:57:00,
2013-08-05 19:02:00,68.4,21.8,30.18,WSW,239,1.0,6.0,17,0.00,,,0.00,WeatherDisplay:10.37,2013-08-06 02:02:00,
2013-08-05 19:07:00,67.8,21.4,30.18,WSW,237,0.0,5.0,17,0.00,,,0.00,WeatherDisplay:10.37,2013-08-06 02:07:00,
2013-08-05 19:12:00,67.4,21.0,30.18,WSW,247,0.0,4.0,17,0.00,,,0.00,WeatherDisplay:10.37,2013-08-06 02:12:00,
2013-08-05 19:17:00,66.9,20.6,30.18,WSW,255,0.0,0.0,17,0.00,,,0.00,WeatherDisplay:10.37,2013-08-06 02:17:00,
2013-08-05 19:22:00,66.7,20.4,30.18,WSW,241,0.0,0.0,17,0.00,,,0.00,WeatherDisplay:10.37,2013-08-06 02:22:00,
2013-08-05 19:32:00,66.0,21.2,30.18,WSW,250,0.0,4.0,18,0.00,,,0.00,WeatherDisplay:10.37,2013-08-06 02:32:00,
2013-08-05 19:42:00,65.8,21.1,30.18,WSW,253,0.0,8.0,18,0.00,,,0.00,WeatherDisplay:10.37,2013-08-06 02:42:00,
2013-08-05 19:47:00,65.6,20.9,30.18,WSW,257,0.0,0.0,18,0.00,,,0.00,WeatherDisplay:10.37,2013-08-06 02:47:00,
2013-08-05 19:52:00,65.1,20.5,30.18,West,263,0.0,0.0,18,0.00,,,0.00,WeatherDisplay:10.37,2013-08-06 02:52:00,
2013-08-05 20:02:00,64.8,20.2,30.18,West,262,0.0,0.0,18,0.00,,,0.00,WeatherDisplay:10.37,2013-08-06 03:02:00,
2013-08-05 20:07:00,64.4,19.9,30.18,West,262,0.0,0.0,18,0.00,,,0.00,WeatherDisplay:10.37,2013-08-06 03:07:00,
2013-08-05 20:12:00,64.2,19.8,30.18,West,262,0.0,0.0,18,0.00,,,0.00,WeatherDisplay:10.37,2013-08-06 03:12:00,
2013-08-05 20:22:00,63.7,19.3,30.18,West,262,0.0,0.0,18,0.00,,,0.00,WeatherDisplay:10.37,2013-08-06 03:22:00,
2013-08-05 20:27:00,63.5,19.2,30.18,WSW,242,0.0,0.0,18,0.00,,,0.00,WeatherDisplay:10.37,2013-08-06 03:27:00,
2013-08-05 20:32:00,63.5,19.2,30.18,WSW,242,0.0,0.0,18,0.00,,,0.00,WeatherDisplay:10.37,2013-08-06 03:32:00,
2013-08-05 20:37:00,63.3,19.0,30.18,West,259,0.0,0.0,18,0.00,,,0.00,WeatherDisplay:10.37,2013-08-06 03:37:00,
2013-08-05 20:42:00,63.1,18.9,30.18,West,263,0.0,0.0,18,0.00,,,0.00,WeatherDisplay:10.37,2013-08-06 03:42:00,
2013-08-05 20:47:00,63.1,18.9,30.18,West,263,0.0,0.0,18,0.00,,,0.00,WeatherDisplay:10.37,2013-08-06 03:47:00,
2013-08-05 20:52:00,63.1,18.9,30.18,NNW,335,0.0,0.0,18,0.00,,,0.00,WeatherDisplay:10.37,2013-08-06 03:52:00,
2013-08-05 20:57:00,63.1,18.9,30.18,NNW,348,0.0,0.0,18,0.00,,,0.00,WeatherDisplay:10.37,2013-08-06 03:57:00,
2013-08-05 21:02:00,63.1,18.9,30.18,NW,310,0.0,0.0,18,0.00,,,0.00,WeatherDisplay:10.37,2013-08-06 04:02:00,
2013-08-05 21:07:00,63.1,18.9,30.18,NW,310,0.0,0.0,18,0.00,,,0.00,WeatherDisplay:10.37,2013-08-06 04:07:00,
2013-08-05 21:12:00,63.1,18.9,30.18,NW,310,0.0,0.0,18,0.00,,,0.00,WeatherDisplay:10.37,2013-08-06 04:12:00,
2013-08-05 21:17:00,63.1,18.9,30.18,NW,310,0.0,0.0,18,0.00,,,0.00,WeatherDisplay:10.37,2013-08-06 04:17:00,
2013-08-05 21:22:00,63.1,18.9,30.18,NW,305,0.0,0.0,18,0.00,,,0.00,WeatherDisplay:10.37,2013-08-06 04:22:00,
2013-08-05 21:27:00,63.1,18.9,30.18,WNW,295,0.0,0.0,18,0.00,,,0.00,WeatherDisplay:10.37,2013-08-06 04:27:00,
2013-08-05 21:32:00,63.1,18.8,30.18,WNW,294,0.0,0.0,18,0.00,,,0.00,WeatherDisplay:10.37,2013-08-06 04:32:00,
2013-08-05 21:37:00,63.0,18.7,30.18,WNW,298,0.0,0.0,18,0.00,,,0.00,WeatherDisplay:10.37,2013-08-06 04:37:00,
2013-08-05 21:42:00,63.0,18.7,30.18,WNW,298,0.0,0.0,18,0.00,,,0.00,WeatherDisplay:10.37,2013-08-06 04:42:00,
2013-08-05 21:47:00,62.8,18.6,30.18,NW,313,1.0,4.0,18,0.00,,,0.00,WeatherDisplay:10.37,2013-08-06 04:47:00,
2013-08-05 21:52:00,62.4,19.6,30.18,NNW,344,0.0,3.0,19,0.00,,,0.00,WeatherDisplay:10.37,2013-08-06 04:52:00,
2013-08-05 21:57:00,62.4,19.6,30.18,NNW,331,0.0,0.0,19,0.00,,,0.00,WeatherDisplay:10.37,2013-08-06 04:57:00,
2013-08-05 22:02:00,62.6,18.4,30.18,NW,318,0.0,4.0,18,0.00,,,0.00,WeatherDisplay:10.37,2013-08-06 05:02:00,
2013-08-05 22:07:00,63.0,18.7,30.18,West,274,0.0,6.0,18,0.00,,,0.00,WeatherDisplay:10.37,2013-08-06 05:07:00,
2013-08-05 22:12:00,63.0,18.8,30.18,West,278,0.0,0.0,18,0.00,,,0.00,WeatherDisplay:10.37,2013-08-06 05:12:00,
2013-08-05 22:17:00,63.0,18.7,30.18,NW,306,0.0,4.0,18,0.00,,,0.00,WeatherDisplay:10.37,2013-08-06 05:17:00,
2013-08-05 22:22:00,63.0,18.7,30.18,WNW,287,0.0,4.0,18,0.00,,,0.00,WeatherDisplay:10.37,2013-08-06 05:22:00,
2013-08-05 22:27:00,62.8,18.6,30.18,West,280,0.0,0.0,18,0.00,,,0.00,WeatherDisplay:10.37,2013-08-06 05:27:00,
2013-08-05 22:32:00,62.6,18.4,30.18,WSW,253,0.0,0.0,18,0.00,,,0.00,WeatherDisplay:10.37,2013-08-06 05:32:00,
2013-08-05 22:37:00,62.4,19.6,30.18,SW,236,0.0,0.0,19,0.00,,,0.00,WeatherDisplay:10.37,2013-08-06 05:37:00,
2013-08-05 22:42:00,62.3,19.5,30.18,SW,236,0.0,0.0,19,0.00,,,0.00,WeatherDisplay:10.37,2013-08-06 05:42:00,
2013-08-05 22:47:00,62.2,19.4,30.18,SW,236,0.0,0.0,19,0.00,,,0.00,WeatherDisplay:10.37,2013-08-06 05:47:00,
2013-08-05 22:52:00,62.2,19.4,30.18,SW,236,0.0,0.0,19,0.00,,,0.00,WeatherDisplay:10.37,2013-08-06 05:52:00,
2013-08-05 22:57:00,62.1,19.3,30.18,SW,236,0.0,0.0,19,0.00,,,0.00,WeatherDisplay:10.37,2013-08-06 05:57:00,
2013-08-05 23:02:00,61.9,19.1,30.18,SW,236,0.0,0.0,19,0.00,,,0.00,WeatherDisplay:10.37,2013-08-06 06:02:00,
2013-08-05 23:07:00,61.9,19.1,30.18,WSW,241,0.0,0.0,19,0.00,,,0.00,WeatherDisplay:10.37,2013-08-06 06:07:00,
2013-08-05 23:12:00,61.7,19.0,30.18,WSW,252,0.0,0.0,19,0.00,,,0.00,WeatherDisplay:10.37,2013-08-06 06:12:00,
2013-08-05 23:17:00,61.7,19.0,30.18,West,264,0.0,0.0,19,0.00,,,0.00,WeatherDisplay:10.37,2013-08-06 06:17:00,
2013-08-05 23:22:00,61.9,19.1,30.18,West,273,0.0,0.0,19,0.00,,,0.00,WeatherDisplay:10.37,2013-08-06 06:22:00,
2013-08-05 23:27:00,61.7,19.0,30.18,West,278,0.0,0.0,19,0.00,,,0.00,WeatherDisplay:10.37,2013-08-06 06:27:00,
2013-08-05 23:32:00,61.7,19.0,30.18,West,278,0.0,0.0,19,0.00,,,0.00,WeatherDisplay:10.37,2013-08-06 06:32:00,
2013-08-05 23:37:00,61.8,19.0,30.18,West,280,0.0,0.0,19,0.00,,,0.00,WeatherDisplay:10.37,2013-08-06 06:37:00,
2013-08-05 23:42:00,61.7,19.0,30.18,West,281,0.0,0.0,19,0.00,,,0.00,WeatherDisplay:10.37,2013-08-06 06:42:00,
2013-08-05 23:47:00,61.7,19.0,30.18,West,281,0.0,0.0,19,0.00,,,0.00,WeatherDisplay:10.37,2013-08-06 06:47:00,
2013-08-05 23:52:00,61.5,18.8,30.18,West,281,0.0,0.0,19,0.00,,,0.00,WeatherDisplay:10.37,2013-08-06 06:52:00,